Powrót do katalogu

XCUBE-1

AktywnyNaukaVLEO
NORAD 62400·PAYLOAD·🇺🇸 United States

Wystrzelony Dec 21, 2024 z Vandenberg Space Force Base

Loading…

Następne Przeloty (najbliższe 24 godziny)

TLE

ŚwieżeSource: Space-Track

Epoka: Sep 14, 2026, 10:25 UTC

1 62400U 24247Z   26257.43468675  .00006299  00000-0  21760-3 0  9991
2 62400  44.9949 163.2476 0002241   0.3739 359.7146 15.30791750 96630

Śledź XCUBE-1 w czasie rzeczywistym z AllMySat

Download on the App Store